Time,TemperatureF,DewpointF,PressureIn,WindDirection,WindDirectionDegrees,WindSpeedMPH,WindSpeedGustMPH,Humidity,HourlyPrecipIn,Conditions,Clouds,dailyrainin,SolarRadiationWatts/m^2,SoftwareType,DateUTC
2013-10-23 00:04:00,40.0,26.0,-100.00,NE,40,3.0,11.0,57,0.00,,,0.00,0.000000,,2013-10-23 04:04:00,
2013-10-23 00:45:00,40.0,25.0,-100.00,NNE,21,5.0,10.0,55,0.00,,,0.00,0.000000,,2013-10-23 04:45:00,
2013-10-23 00:55:00,40.0,25.0,-100.00,NNE,21,5.0,10.0,55,0.00,,,0.00,0.000000,,2013-10-23 04:55:00,
2013-10-23 01:04:00,40.0,25.0,-100.00,NNE,21,5.0,10.0,55,0.00,,,0.00,0.000000,,2013-10-23 05:04:00,
2013-10-23 01:43:00,40.0,26.0,-100.00,NNE,25,5.0,10.0,56,0.00,,,0.00,0.000000,,2013-10-23 05:43:00,
2013-10-23 01:53:00,40.0,26.0,-100.00,NNE,25,5.0,10.0,56,0.00,,,0.00,0.000000,,2013-10-23 05:53:00,
2013-10-23 02:02:00,40.0,26.0,-100.00,NNE,25,5.0,10.0,56,0.00,,,0.00,0.000000,,2013-10-23 06:02:00,
2013-10-23 02:42:00,40.0,25.0,-100.00,NNE,26,6.0,9.0,55,0.00,,,0.00,0.000000,,2013-10-23 06:42:00,
2013-10-23 02:52:00,40.0,25.0,-100.00,NNE,26,6.0,9.0,55,0.00,,,0.00,0.000000,,2013-10-23 06:52:00,
2013-10-23 03:01:00,40.0,25.0,-100.00,NNE,26,6.0,9.0,55,0.00,,,0.00,0.000000,,2013-10-23 07:01:00,
2013-10-23 03:42:00,40.0,26.0,-100.00,NNE,33,6.0,9.0,56,0.00,,,0.00,0.000000,,2013-10-23 07:42:00,
2013-10-23 03:52:00,40.0,26.0,-100.00,NNE,33,6.0,9.0,56,0.00,,,0.00,0.000000,,2013-10-23 07:52:00,
2013-10-23 04:02:00,40.0,26.0,-100.00,NNE,33,6.0,9.0,56,0.00,,,0.00,0.000000,,2013-10-23 08:02:00,
2013-10-23 04:42:00,39.0,25.0,-100.00,NNE,22,5.0,7.0,56,0.00,,,0.00,0.000000,,2013-10-23 08:42:00,
2013-10-23 04:53:00,39.0,25.0,-100.00,NNE,22,5.0,7.0,56,0.00,,,0.00,0.000000,,2013-10-23 08:53:00,
2013-10-23 05:02:00,39.0,25.0,-100.00,NNE,22,5.0,7.0,56,0.00,,,0.00,0.000000,,2013-10-23 09:02:00,
2013-10-23 05:43:00,39.0,26.0,-100.00,ENE,63,5.0,7.0,59,0.00,,,0.00,0.000000,,2013-10-23 09:43:00,
2013-10-23 05:53:00,39.0,26.0,-100.00,ENE,63,5.0,7.0,59,0.00,,,0.00,0.000000,,2013-10-23 09:53:00,
2013-10-23 06:03:00,39.0,26.0,-100.00,ENE,63,5.0,7.0,59,0.00,,,0.00,0.000000,,2013-10-23 10:03:00,
2013-10-23 06:43:00,38.0,25.0,-100.00,ENE,75,3.0,6.0,60,0.00,,,0.00,0.000000,,2013-10-23 10:43:00,
2013-10-23 06:53:00,38.0,25.0,-100.00,ENE,75,3.0,6.0,60,0.00,,,0.00,0.000000,,2013-10-23 10:53:00,
2013-10-23 07:02:00,38.0,25.0,-100.00,ENE,75,3.0,6.0,60,0.00,,,0.00,0.000000,,2013-10-23 11:02:00,
2013-10-23 07:42:00,37.0,24.0,-100.00,NNW,347,1.0,4.0,59,0.00,,,0.00,0.000000,,2013-10-23 11:42:00,
2013-10-23 07:52:00,37.0,24.0,-100.00,NNW,347,1.0,4.0,59,0.00,,,0.00,0.000000,,2013-10-23 11:52:00,
2013-10-23 08:01:00,37.0,24.0,-100.00,NNW,347,1.0,4.0,59,0.00,,,0.00,0.000000,,2013-10-23 12:01:00,
2013-10-23 08:42:00,38.0,28.0,-100.00,ESE,116,2.0,5.0,66,0.00,,,0.00,5.000000,,2013-10-23 12:42:00,
2013-10-23 08:52:00,38.0,28.0,-100.00,ESE,116,2.0,5.0,66,0.00,,,0.00,5.000000,,2013-10-23 12:52:00,
2013-10-23 09:01:00,38.0,28.0,-100.00,ESE,116,2.0,5.0,66,0.00,,,0.00,5.000000,,2013-10-23 13:01:00,
2013-10-23 09:43:00,40.0,30.0,-100.00,East,86,3.0,4.0,66,0.00,,,0.00,58.000000,,2013-10-23 13:43:00,
2013-10-23 09:52:00,40.0,30.0,-100.00,East,86,3.0,4.0,66,0.00,,,0.00,58.000000,,2013-10-23 13:52:00,
2013-10-23 10:02:00,40.0,30.0,-100.00,East,86,3.0,4.0,66,0.00,,,0.00,58.000000,,2013-10-23 14:02:00,
2013-10-23 10:42:00,43.0,30.0,-100.00,NNW,331,3.0,6.0,61,0.00,,,0.00,268.000000,,2013-10-23 14:42:00,
2013-10-23 10:52:00,43.0,30.0,-100.00,NNW,331,3.0,6.0,61,0.00,,,0.00,268.000000,,2013-10-23 14:52:00,
2013-10-23 11:02:00,43.0,30.0,-100.00,NNW,331,3.0,6.0,61,0.00,,,0.00,268.000000,,2013-10-23 15:02:00,
2013-10-23 11:43:00,46.0,29.0,-100.00,NNW,335,3.0,8.0,52,0.00,,,0.00,401.000000,,2013-10-23 15:43:00,
2013-10-23 11:53:00,46.0,29.0,-100.00,NNW,335,3.0,8.0,52,0.00,,,0.00,401.000000,,2013-10-23 15:53:00,
2013-10-23 12:03:00,46.0,29.0,-100.00,NNW,335,3.0,8.0,52,0.00,,,0.00,401.000000,,2013-10-23 16:03:00,
2013-10-23 12:43:00,45.0,29.0,-100.00,North,359,4.0,8.0,54,0.00,,,0.00,343.000000,,2013-10-23 16:43:00,
2013-10-23 12:53:00,45.0,29.0,-100.00,North,359,4.0,8.0,54,0.00,,,0.00,343.000000,,2013-10-23 16:53:00,
2013-10-23 13:03:00,45.0,29.0,-100.00,North,359,4.0,8.0,54,0.00,,,0.00,343.000000,,2013-10-23 17:03:00,
2013-10-23 13:44:00,46.0,30.0,-100.00,NE,34,4.0,9.0,54,0.00,,,0.00,309.000000,,2013-10-23 17:44:00,
2013-10-23 13:52:00,46.0,30.0,-100.00,NE,34,4.0,9.0,54,0.00,,,0.00,309.000000,,2013-10-23 17:52:00,
2013-10-23 14:02:00,46.0,30.0,-100.00,NE,34,4.0,9.0,54,0.00,,,0.00,309.000000,,2013-10-23 18:02:00,
2013-10-23 15:42:00,42.0,33.0,-100.00,NNE,18,3.0,9.0,71,-99.99,,,-99.99,131.000000,,2013-10-23 19:42:00,
2013-10-23 15:53:00,42.0,33.0,-100.00,NNE,18,3.0,9.0,71,-99.99,,,-99.99,131.000000,,2013-10-23 19:53:00,
2013-10-23 16:03:00,42.0,33.0,-100.00,NNE,18,3.0,9.0,71,-99.99,,,-99.99,131.000000,,2013-10-23 20:03:00,
2013-10-23 16:42:00,41.0,35.0,-100.00,NNE,22,5.0,10.0,78,0.00,,,0.00,93.000000,,2013-10-23 20:42:00,
2013-10-23 16:52:00,41.0,35.0,-100.00,NNE,22,5.0,10.0,78,0.00,,,0.00,93.000000,,2013-10-23 20:52:00,
2013-10-23 17:02:00,41.0,35.0,-100.00,NNE,22,5.0,10.0,78,0.00,,,0.00,93.000000,,2013-10-23 21:02:00,
2013-10-23 17:43:00,41.0,36.0,-100.00,North,356,4.0,9.0,81,0.00,,,0.00,96.000000,,2013-10-23 21:43:00,
2013-10-23 17:54:00,41.0,36.0,-100.00,North,356,4.0,9.0,81,0.00,,,0.00,96.000000,,2013-10-23 21:54:00,
2013-10-23 18:04:00,41.0,36.0,-100.00,North,356,4.0,9.0,81,0.00,,,0.00,96.000000,,2013-10-23 22:04:00,
2013-10-23 18:43:00,40.0,36.0,-100.00,NNE,25,3.0,9.0,85,0.00,,,0.00,23.000000,,2013-10-23 22:43:00,
2013-10-23 18:54:00,40.0,36.0,-100.00,NNE,25,3.0,9.0,85,0.00,,,0.00,23.000000,,2013-10-23 22:54:00,
2013-10-23 19:03:00,40.0,36.0,-100.00,NNE,25,3.0,9.0,85,0.00,,,0.00,23.000000,,2013-10-23 23:03:00,
2013-10-23 19:43:00,38.0,38.0,-100.00,NE,35,2.0,7.0,100,0.00,,,0.00,1.000000,,2013-10-23 23:43:00,
2013-10-23 19:53:00,38.0,38.0,-100.00,NE,35,2.0,7.0,100,0.00,,,0.00,1.000000,,2013-10-23 23:53:00,
2013-10-23 20:02:00,38.0,38.0,-100.00,NE,35,2.0,7.0,100,0.00,,,0.00,1.000000,,2013-10-24 00:02:00,
2013-10-23 20:43:00,36.0,36.0,-100.00,ENE,63,2.0,6.0,100,0.00,,,0.00,0.000000,,2013-10-24 00:43:00,
2013-10-23 20:52:00,36.0,36.0,-100.00,ENE,63,2.0,6.0,100,0.00,,,0.00,0.000000,,2013-10-24 00:52:00,
2013-10-23 21:01:00,36.0,36.0,-100.00,ENE,63,2.0,6.0,100,0.00,,,0.00,0.000000,,2013-10-24 01:01:00,
2013-10-23 21:42:00,35.0,35.0,-100.00,NE,36,2.0,6.0,100,0.00,,,0.00,0.000000,,2013-10-24 01:42:00,
2013-10-23 21:52:00,35.0,35.0,-100.00,NE,36,2.0,6.0,100,0.00,,,0.00,0.000000,,2013-10-24 01:52:00,
2013-10-23 22:03:00,35.0,35.0,-100.00,NE,36,2.0,6.0,100,0.00,,,0.00,0.000000,,2013-10-24 02:03:00,
2013-10-23 22:52:00,36.0,36.0,-100.00,NE,34,4.0,10.0,100,0.00,,,0.00,0.000000,,2013-10-24 02:52:00,
2013-10-23 23:02:00,36.0,36.0,-100.00,NE,34,4.0,10.0,100,0.00,,,0.00,0.000000,,2013-10-24 03:02:00,
2013-10-23 23:44:00,35.0,34.0,-100.00,NNW,347,3.0,10.0,98,0.00,,,0.00,0.000000,,2013-10-24 03:44:00,
2013-10-23 23:55:00,35.0,34.0,-100.00,NNW,347,3.0,10.0,98,0.00,,,0.00,0.000000,,2013-10-24 03:55:00,